Regional Weather Roundup
Issued by NWS

Home | Current Version | Previous Version | Graphics & Text | Print | Product List | Glossary On
Versions: 1 2 3 4 5 6 7 8 9 10 11 12 13 14 15 16 17 18 19 20 21 22 23 24 25 26 27 28 29 30 31 32 33 34 35 36 37 38 39 40 41 42 43 44 45 46 47 48 49 50
054
ASUS43 KTOP 200808
RWRKS

WEATHER ROUNDUP FOR KANSAS
NATIONAL WEATHER SERVICE GOODLAND KS
300 AM CDT THU JUL 20 2017

NOTE:  "FAIR" INDICATES FEW OR NO CLOUDS BELOW 12,000 FEET WITH NO
SIGNIFICANT WEATHER AND/OR OBSTRUCTIONS TO VISIBILITY.

KSZ001>006-013>018-027>032-041>047-200900-
NORTHWEST KANSAS

CITY           SKY/WX    TMP DP  RH WIND       PRES   REMARKS
GOODLAND       CLOUDY    74  57  55 S14       30.03F
HAYS           CLEAR     81  64  56 S10       30.01S
HILL CITY      CLEAR     81  62  52 S10       29.99F
RUSSELL        CLEAR     82  63  52 S17       29.98F
$$

KSZ061>065-074>080-084>089-200900-
SOUTHWEST KANSAS

CITY           SKY/WX    TMP DP  RH WIND       PRES   REMARKS
DODGE CITY     CLEAR     76  62  62 S9        30.05F
ELKHART          N/A     72  49  44 S12         N/A
GARDEN CITY    CLEAR     74  60  61 S7        30.05F
LIBERAL        CLEAR     71  62  73 S7        30.09S
PRATT          CLEAR     78  63  60 S9        30.06S
$$

KSZ066>073-081>083-090>101-200900-
SOUTHEAST KANSAS

CITY           SKY/WX    TMP DP  RH WIND       PRES   REMARKS
CHANUTE        CLEAR     79  72  79 S9        30.05F
COFFEYVILLE    CLEAR     77  73  87 SE3       30.05S
HUTCHINSON     CLEAR     81  66  60 S8        30.03F
MEDICINE LODGE   N/A     80  65  59 SE6       30.04F
NEWTON         CLEAR     81  69  67 S13       30.05S
PARSONS        CLEAR     77  72  84 CALM      30.06F
WICHITA INTL   CLEAR     80  71  74 S12       30.03F
WICHITA JABRA  CLEAR     81  70  69 S10       30.04F
WICHITA MCCONL CLEAR     80  70  72 SW12      30.04F
WINFIELD       CLEAR     78  70  76 S8        30.06S
$$

KSZ007>012-019>026-033>040-048>060-102>105-200900-
NORTHEAST KANSAS

CITY           SKY/WX    TMP DP  RH WIND       PRES   REMARKS
CONCORDIA      CLEAR     81  66  60 S18       29.98F
EMPORIA        CLEAR     76  70  82 S10       30.04S
LAWRENCE       CLEAR     81  71  71 S9        30.01S
MANHATTAN      CLEAR     81  68  64 SW8       30.00S
MARYSVILLE     CLEAR     81  68  65 S8        29.99F
OLATHE IND     CLEAR     77  70  79 S10       30.04S
OLATHE EXE     CLEAR     77  71  82 S8        30.04S
SALINA         CLEAR     84  66  54 S14G20    29.99F
TOPEKA BILLARD CLEAR     82  72  71 S12G18    30.00S
TOPEKA FORBES  CLEAR     80  72  76 S10       30.02F
$$




USA.gov is the U.S. government's official web portal to all federal, state and local government web resources and services.